Location: Harwich
(41.7160°N, 69.9939°W)
Time: 23:19:13
(UTC+02:00)

AO-7 - Pass Details

Date: 24 September 2024
Orbit: 1439 x 1458 km, 102.0° (Epoch: 28 April)

Event Time Altitude Azimuth Distance (km) Brightness Sun altitude
Rises 10:23:57 0° 36° (NE) 4,569 ? -23.8°
Reaches altitude 10° 10:29:01 10° 62° (ENE) 3,581 ? -22.9°
Maximum altitude 10:32:33 13° 88° (E) 3,332 ? -22.3°
Drops below altitude 10° 10:36:04 10° 114° (ESE) 3,567 ? -21.7°
Sets 10:41:01 0° 139° (SE) 4,534 ? -20.8°
